Portada
METAR-TAF:

METAR-TAF

Aeroports :

Newport State Airport

Newport, Rhode Island, Estats Units d'Amèrica

latitud: 41-31-48N, longitud: 071-17-01W, altitud: 52 m

Observació

L'informe es va fer fa 1 hora i 6 minuts, a les 22:53 UTC
Vent 10 kt del Oest/Nord-Oest amb ràfegues de 18 kt
Temperatura 1°C
Humitat 40%
Pressió 1005 hPa
Visibilitat: 16.1 km
Cel clar

METAR: KUUU 042253Z AUTO 30010G18KT 10SM CLR 01/M11 A2967 RMK AO2 SLP046 T00111106

Hora: 18:59 (23:59 UTC)


TAF: manca

Observacions i pronòstics meteorològics de més de 4000 aeroports (METAR i TAF).

Les estacions disponibles són els punts grocs i vermells al mapa.

Posi el ratolí al punt desitjat per veure el nom de l'estació.

Feu clic per veure les observacions i els pronòstics meteorològics.

Per canviar el mapa: feu clic els botons verds amb una creu de color negre per apropar; al botó verd amb un guió per allunyar la imatge; o en les fletxes verdes per a mapes adjacents.


METAR-TAF: